Location: Balaclava NSW 2575, Australia
(34.4510°S, 150.4953°E)
Time: 18:31:30
(UTC+10:00)

Hubble Space Telescope - Pass Details

Date: 16 May 2021
Orbit: 535 x 539 km, 28.5° (Epoch: 17 June)

Event Time Altitude Azimuth Distance (km) Brightness Sun altitude
Rises 18:15:40 0° 315° (NW) 2,678 5.4 -15.0°
Reaches altitude 10° 18:18:26 10° 333° (NNW) 1,791 4.0 -15.5°
Maximum altitude 18:21:22 19° 18° (NNE) 1,331 2.7 -16.1°
Enters shadow 18:22:57 15° 47° (NE) 1,483 2.7 -16.4°
